This is the latest recevied weather packets stored in our database for station/object KD8JAM. If no packets are shown the sender has not sent any weather packets the latest 1 day(s).
| Time | Temp. | Humidity | Pressure | Rain* | Wind** | Luminosity | Snow |
|---|---|---|---|---|---|---|---|
| 1778072308 | 1.11° C | 90% | 1012.4 hPa | 0 mm | - | 109 W/m² | - |
| 1778072006 | 1.11° C | 90% | 1012.5 hPa | 0 mm | - | 107 W/m² | - |
| 1778071401 | 1.11° C | 91% | 1012.3 hPa | 0 mm | - | 110 W/m² | - |
| 1778070797 | 1.11° C | 91% | 1012.2 hPa | 0 mm | - | 108 W/m² | - |
| 1778070494 | 1.11° C | 91% | 1012.2 hPa | 0 mm | - | 108 W/m² | - |
| 1778069889 | 0.56° C | 92% | 1012.3 hPa | 0 mm | - | 91 W/m² | - |
| 1778069283 | 0.56° C | 92% | 1012.3 hPa | 0 mm | - | 67 W/m² | - |
| 1778068678 | 0.56° C | 92% | 1012.2 hPa | 0 mm | - | 55 W/m² | - |
| 1778068376 | 0.56° C | 92% | 1012.1 hPa | 0 mm | - | 50 W/m² | - |
| 1778067771 | 0.56° C | 91% | 1012.1 hPa | 0 mm | - | 39 W/m² | - |
| 1778065956 | 0.56° C | 92% | 1012 hPa | 0 mm | - | 15 W/m² | - |
| 1778065652 | 0.56° C | 91% | 1011.7 hPa | 0 mm | - | 13 W/m² | - |
| 1778061416 | 0.56° C | 89% | 1011.4 hPa | 0 mm | - | 0 W/m² | - |
| 1778061112 | 0.56° C | 89% | 1011.4 hPa | 0 mm | - | 0 W/m² | - |
| 1778059902 | 0.56° C | 87% | 1011.6 hPa | 0 mm | - | 0 W/m² | - |
| 1778059600 | 0.56° C | 87% | 1011.4 hPa | 0 mm | - | 0 W/m² | - |
| 1778059297 | 0.56° C | 86% | 1011.6 hPa | 0 mm | - | 0 W/m² | - |
| 1778058995 | 0.56° C | 86% | 1011.5 hPa | 0 mm | - | 0 W/m² | - |
| 1778057176 | 0.56° C | 80% | 1011.4 hPa | 0 mm | - | 0 W/m² | - |
| 1778056873 | 0.56° C | 80% | 1011.5 hPa | 0 mm | - | 0 W/m² | - |
| 1778055964 | 1.11° C | 77% | 1011.2 hPa | 0 mm | - | 0 W/m² | - |
| 1778055358 | 1.11° C | 78% | 1011.3 hPa | 0 mm | - | 0 W/m² | - |
| 1778054753 | 1.11° C | 78% | 1011.4 hPa | 0 mm | - | 0 W/m² | - |
| 1778053238 | 1.11° C | 75% | 1011.2 hPa | 0 mm | - | 0 W/m² | - |
| 1778052936 | 1.11° C | 74% | 1011.3 hPa | 0 mm | - | 0 W/m² | - |
* Rain latest hour (hover to see other rain measurements)
** Current wind speed in m/s (hover to see current wind gust speed)